Retour au catalogue

USA 160 DEB

ActifLEO
NORAD 26907·DEBRIS·🇺🇸 United States

Lancé Sep 8, 2001 depuis Vandenberg Space Force Base

Loading…

Prochains Passages (prochaines 24 heures)

TLE

PériméSource: Mike McCants

Époque: Aug 7, 2026, 20:14 UTC

1 26907U 01040C   26219.84323025 0.00000600  00000-0  27679-3 0    09
2 26907  63.3647 102.4104 0664834  13.7311 346.2688 13.42373489    05

Suivez USA 160 DEB en temps réel avec AllMySat

Download on the App Store